GFSNIL_sfc_dewp_000.txt.gz
Dewpoint
35 37 37 38 37 37 37 36 37 36 34 33 35 34 35 32 31 30 29 28 28 30
34 33 34 35 36 37 37 37 37 34 36 36 36 33 33 31 30 30 30 30 30 30
29 30 32 33 33 35 36 36 36 36 35 34 32 31 31 30 29 30 30 31 28 24
29 30 31 32 33 34 34 34 34 33 34 31 31 31 28 26 27 29 28 24 23 23
29 30 30 31 31 32 31 31 32 33 33 33 30 28 25 26 27 24 22 22 22 21
30 31 30 28 29 30 30 30 32 33 31 28 26 25 25 26 24 21 21 21 21 21
30 31 31 31 30 31 33 34 32 30 29 26 24 24 25 22 21 21 21 22 21 21
31 32 32 32 33 33 33 34 31 31 24 22 23 23 22 20 21 21 21 21 21 21
31 32 32 33 33 33 35 32 26 19 21 23 21 28 28 29 27 24 21 24 24 24
31 32 32 32 32 32 31 29 26 22 23 23 27 30 30 29 24 23 22 19 18 17
31 31 31 31 31 31 31 30 20 23 24 26 24 26 27 24 21 20 19 17 18 17
30 30 31 31 30 30 30 26 24 24 23 19 20 23 21 21 21 20 18 18 18 18
30 30 30 30 29 28 21 22 22 22 20 18 19 19 19 19 19 15 18 20 18 19
28 28 28 27 25 20 22 22 22 22 20 18 19 18 18 18 17 17 20 19 18 19

GFSNIL_sfc_dewp_003.txt.gz
Dewpoint
27 24 24 28 29 30 32 34 40 41 40 37 36 36 37 33 30 32 29 30 31 28
28 29 29 31 32 31 37 37 41 39 38 38 37 35 34 32 32 31 32 32 32 31
29 30 31 32 32 33 37 39 39 37 36 37 36 34 33 31 31 31 32 30 32 28
30 32 32 32 32 34 36 37 37 36 35 35 33 32 32 31 30 30 31 30 27 25
31 32 31 32 32 34 34 34 34 35 34 34 33 31 29 29 28 28 27 26 24 23
30 31 31 32 33 34 34 34 35 35 34 30 30 26 27 28 27 26 24 23 23 23
31 32 32 33 34 35 36 36 35 34 33 32 25 25 26 25 24 23 23 24 23 24
32 33 32 33 34 35 36 36 35 32 24 25 25 22 25 23 24 25 25 24 23 22
32 32 32 33 34 35 35 35 30 29 26 25 23 30 31 28 23 20 18 17 17 16
30 31 32 32 31 33 34 34 33 27 26 26 27 27 27 25 18 16 16 15 13 13
29 30 31 31 30 33 33 32 31 26 25 25 22 23 22 22 20 17 15 14 15 14
28 29 30 30 31 31 29 29 28 26 24 18 18 20 20 20 21 19 17 17 16 16
27 30 29 30 30 29 27 21 24 22 19 17 18 18 19 19 21 21 19 18 16 17
28 29 30 30 28 25 23 24 26 23 21 18 18 19 18 18 22 21 19 16 14 17

GFSNIL_sfc_dewp_006.txt.gz
Dewpoint
26 24 24 27 28 26 27 29 35 39 41 42 39 36 38 38 34 31 29 28 27 25
29 30 31 31 31 28 31 30 36 41 40 39 37 38 36 33 31 30 29 29 27 24
30 31 31 31 30 31 32 33 36 38 39 37 37 34 33 30 27 27 26 24 25 24
31 30 31 30 30 31 33 32 33 35 37 36 33 32 33 28 25 24 25 26 25 24
30 30 29 29 29 32 32 33 33 33 34 33 32 32 27 25 24 24 24 25 25 23
29 29 29 30 30 31 32 33 34 33 33 31 30 27 24 26 26 25 25 25 25 24
29 29 31 31 31 31 32 33 33 33 33 32 27 24 25 25 26 26 25 26 26 25
29 31 30 31 30 31 34 33 33 31 29 28 27 22 27 26 27 26 24 23 20 19
28 29 31 29 31 31 31 31 31 32 32 30 24 31 28 24 21 21 19 18 17 17
27 29 29 28 27 27 29 31 30 30 31 30 30 28 24 23 20 20 18 17 16 14
26 26 26 26 27 29 29 29 27 27 29 29 25 22 21 21 21 19 18 17 17 17
22 24 24 25 28 29 29 27 26 27 28 27 23 20 19 20 23 21 20 18 16 16
23 23 24 26 29 30 29 27 24 25 26 20 23 19 18 20 24 24 22 19 15 14
23 24 26 28 29 29 28 26 29 26 26 24 23 22 18 18 24 24 21 19 17 16

GFSNIL_sfc_dewp_009.txt.gz
Dewpoint
28 27 27 29 28 26 27 28 31 34 37 37 38 39 38 39 40 39 34 31 30 27
31 33 31 30 30 27 29 26 30 34 36 39 38 39 41 36 35 32 31 30 28 26
31 32 32 31 29 29 30 30 31 32 33 35 36 37 34 32 32 31 29 24 27 27
31 31 31 30 29 29 31 30 29 30 32 31 31 31 31 32 32 27 27 28 28 26
32 30 29 29 28 30 30 30 30 31 30 29 29 29 28 28 26 26 26 27 26 25
29 30 29 29 30 29 29 30 31 30 30 29 31 30 29 26 26 28 28 26 27 26
29 30 30 30 30 29 28 30 30 30 29 30 27 24 24 24 26 27 28 29 25 22
29 30 29 30 30 29 30 29 29 29 31 32 29 24 28 28 28 26 25 24 20 20
28 27 28 29 30 29 28 27 27 27 28 32 28 31 28 24 24 22 21 21 20 19
26 25 28 27 25 25 27 28 27 26 26 30 30 29 24 22 21 23 23 21 18 16
24 24 24 24 24 25 28 27 26 25 26 27 27 26 22 21 23 24 22 20 19 18
20 20 21 22 23 25 27 27 26 25 24 24 26 24 21 20 24 24 22 21 19 17
20 20 20 22 23 25 27 26 25 25 25 24 28 23 21 20 25 25 24 21 19 19
20 21 23 25 26 26 27 28 31 29 28 28 27 26 22 20 23 25 23 20 20 20

GFSNIL_sfc_dewp_012.txt.gz
Dewpoint
37 35 35 36 33 34 33 34 34 37 38 39 41 39 40 41 41 40 39 34 34 31
38 38 38 36 34 34 33 29 34 36 37 38 37 39 40 40 38 36 35 32 32 29
38 39 38 36 33 32 33 33 34 35 35 36 37 39 38 37 35 34 34 33 31 31
37 38 37 34 33 32 33 33 33 33 34 33 33 33 34 33 32 33 31 32 31 32
38 37 35 34 32 33 32 33 32 33 33 33 33 33 33 32 30 31 32 32 31 30
36 39 34 33 33 32 32 32 33 33 34 33 33 33 33 31 30 30 31 31 30 29
36 36 34 33 33 33 32 32 32 34 34 33 30 29 28 28 30 30 29 30 28 25
35 34 33 34 34 34 33 32 32 32 33 33 33 29 30 29 27 27 25 25 24 22
32 32 33 33 35 35 34 32 30 30 32 31 31 31 28 25 23 25 24 24 23 21
33 32 33 32 31 31 31 32 31 31 30 29 32 31 27 24 20 23 26 24 22 19
33 33 30 30 28 30 31 31 31 30 29 29 30 30 26 23 21 25 25 23 22 20
32 25 26 27 29 29 30 30 31 30 28 29 27 28 25 21 23 26 24 23 22 20
29 25 25 28 29 31 31 30 30 29 29 28 28 27 24 21 26 25 26 24 22 23
29 27 28 29 30 30 30 31 31 29 29 28 29 26 25 23 23 26 25 24 23 24

GFSNIL_sfc_dewp_015.txt.gz
Dewpoint
32 33 32 32 31 32 31 31 30 33 34 35 38 39 39 39 38 38 37 36 32 32
33 34 34 32 32 32 32 28 31 32 32 34 36 38 38 38 37 37 33 32 31 32
35 35 34 33 31 31 32 30 31 31 32 32 32 34 37 36 35 32 35 33 32 31
35 36 34 33 32 31 31 31 30 32 32 32 32 32 31 31 28 32 32 32 31 30
36 35 34 34 32 32 30 31 30 31 32 33 33 32 32 32 31 31 32 32 30 29
37 36 34 33 32 32 31 30 31 31 32 33 32 31 32 32 30 30 30 30 29 28
38 36 35 33 32 32 31 30 30 32 34 35 31 30 30 30 29 28 27 27 26 25
37 36 33 33 32 32 33 30 31 32 33 34 33 31 29 27 26 25 25 25 24 22
35 34 34 33 33 33 34 32 32 31 32 32 32 32 32 27 23 23 23 24 23 21
33 33 34 34 33 32 33 32 31 31 31 30 32 32 30 26 20 21 23 24 21 20
34 34 34 34 32 30 30 30 30 31 31 31 30 32 30 26 20 22 25 22 21 20
34 33 34 32 32 32 31 30 29 30 30 31 30 31 28 22 23 25 24 24 23 22
33 33 30 32 32 32 30 29 30 28 29 30 28 30 27 23 25 24 25 23 22 23
36 34 32 31 31 30 30 30 30 28 28 28 27 27 27 26 24 24 25 24 23 23

GFSNIL_sfc_dewp_018.txt.gz
Dewpoint
31 31 32 32 32 32 32 31 33 33 34 35 38 38 38 38 36 37 37 35 35 32
34 34 34 32 32 32 32 31 33 32 33 33 33 37 38 37 36 36 35 32 32 30
36 35 34 33 32 33 33 32 32 32 32 32 32 32 34 34 33 31 33 33 31 30
34 35 33 32 33 33 32 32 32 32 31 32 31 32 31 31 30 32 32 31 30 30
37 36 34 33 33 34 32 32 31 30 31 32 33 33 31 31 31 31 31 31 31 30
37 36 33 33 33 33 32 32 31 30 31 32 34 33 32 31 32 31 31 32 30 29
36 34 35 33 33 32 32 30 30 31 32 34 34 31 31 30 29 28 27 27 26 24
36 36 36 34 32 32 32 31 31 31 33 34 33 32 31 29 28 26 25 25 23 22
38 35 35 34 33 32 33 33 32 32 33 33 31 33 34 30 25 24 23 23 23 20
35 34 35 33 32 33 34 34 33 33 33 32 32 34 34 31 23 22 22 24 21 20
35 34 34 34 34 35 34 31 31 30 31 32 31 34 32 28 22 22 24 23 22 21
35 33 34 34 35 34 33 32 30 30 31 31 30 33 31 25 21 24 24 24 23 22
34 34 35 36 36 35 31 30 31 30 29 31 30 32 30 25 25 24 25 24 23 24
37 38 38 36 33 31 30 30 30 30 30 29 28 29 30 29 24 24 24 24 23 23

GFSNIL_sfc_dewp_024.txt.gz
Dewpoint
48 46 42 37 36 35 32 35 35 35 38 41 41 40 40 38 37 37 37 35 35 33
48 46 41 42 38 34 33 34 37 36 36 40 40 39 40 39 38 37 36 35 34 33
46 45 43 39 37 35 36 36 35 35 35 35 35 36 38 38 37 35 35 34 32 31
45 44 41 38 36 35 36 35 35 34 35 34 34 34 33 33 32 30 30 32 32 31
43 40 37 36 34 34 35 35 34 34 34 34 34 34 33 32 31 31 30 31 31 31
42 38 35 34 35 35 35 34 34 33 33 34 34 33 33 33 32 31 31 31 31 30
42 39 37 36 36 34 34 33 33 33 33 33 33 33 33 32 32 31 31 31 31 30
41 40 39 35 35 35 35 33 33 33 33 35 36 32 33 32 31 30 30 30 29 29
40 38 37 36 35 34 33 32 32 33 38 38 33 34 34 34 31 29 28 27 25 24
38 37 37 34 34 34 35 37 38 39 37 35 33 33 35 35 32 29 28 26 24 23
36 36 35 35 36 37 39 39 39 38 36 33 31 33 34 33 32 29 26 24 24 24
36 36 37 37 38 39 39 39 38 36 32 32 31 32 33 33 29 26 24 24 24 23
38 39 39 39 39 39 38 37 33 32 32 31 30 32 33 33 26 25 24 24 24 29
40 40 39 39 39 37 36 34 31 29 29 29 30 29 32 33 26 26 25 25 24 25

GFSNIL_sfc_dewp_027.txt.gz
Dewpoint
51 51 51 48 44 41 41 41 40 41 41 42 43 43 42 40 40 41 39 39 38 36
53 52 51 49 46 45 42 39 41 39 39 42 44 42 42 40 40 41 41 40 40 38
54 52 52 48 44 43 41 38 38 38 40 41 41 41 41 40 41 40 40 38 38 37
53 52 50 47 45 42 39 39 38 37 37 38 37 37 37 37 38 39 38 36 35 35
52 50 48 46 44 41 39 38 36 37 35 34 34 35 35 35 33 35 34 33 34 34
49 48 47 46 43 41 38 36 36 35 34 34 34 34 35 35 35 34 34 34 34 33
47 46 45 43 40 38 38 36 35 35 33 35 34 34 38 37 35 35 34 35 34 33
46 44 41 39 38 37 36 35 35 36 37 39 39 40 40 37 35 34 34 35 34 34
43 40 39 38 38 37 36 35 33 35 40 41 40 38 37 35 34 33 33 33 33 33
40 39 38 37 36 35 35 37 39 41 41 40 41 36 35 35 33 33 33 33 32 30
39 37 36 36 37 39 40 41 41 40 40 40 36 34 35 33 33 33 32 33 32 31
37 36 38 39 40 41 40 40 40 39 39 36 37 37 34 32 32 32 31 31 30 30
38 39 39 40 40 41 40 39 38 37 37 37 38 33 33 33 33 33 32 31 29 30
39 40 40 40 39 38 37 37 36 34 34 33 33 33 33 33 32 33 32 30 29 28

GFSNIL_sfc_dewp_030.txt.gz
Dewpoint
58 58 55 54 52 50 47 45 44 44 44 41 44 44 46 46 42 42 39 39 38 33
59 57 56 54 52 50 47 44 44 45 43 43 44 45 46 42 41 40 41 41 39 35
59 57 56 54 52 48 47 46 44 43 42 44 44 46 43 41 39 39 40 38 37 35
59 57 55 53 52 51 50 46 43 41 44 42 44 42 41 38 35 39 38 38 35 34
58 57 56 55 53 52 49 44 41 42 40 38 39 37 36 34 34 36 37 35 35 32
56 55 54 52 51 48 43 43 43 39 36 36 36 34 36 36 38 41 37 34 33 32
54 53 53 52 49 48 45 42 39 38 37 36 34 32 36 40 42 41 36 35 35 34
51 51 50 49 48 46 44 40 37 36 37 36 36 40 42 41 40 39 36 36 34 34
47 46 45 43 41 40 38 36 36 36 38 41 41 39 39 39 40 37 35 34 34 33
44 42 42 40 37 36 35 37 37 39 39 40 40 39 38 36 36 38 38 35 33 31
41 40 38 37 37 37 39 40 41 41 39 38 38 37 36 36 38 39 34 32 31 31
39 39 39 38 39 41 40 40 40 38 38 39 41 36 37 37 36 32 32 30 30 30
39 39 39 40 40 40 40 40 40 39 38 37 38 37 37 34 34 33 32 32 30 31
39 39 39 40 39 38 37 37 38 36 36 34 34 34 34 34 33 34 34 32 31 32

GFSNIL_sfc_dewp_033.txt.gz
Dewpoint
59 59 60 60 58 57 53 51 53 50 49 46 46 47 47 48 47 47 47 45 39 38
60 60 60 60 59 55 51 51 51 49 47 45 46 47 47 47 47 46 46 42 42 40
60 60 60 60 57 54 52 50 47 47 45 45 47 46 47 47 46 44 43 42 43 41
61 61 60 59 56 54 52 49 47 47 47 45 45 44 44 46 43 40 40 42 41 40
61 59 58 57 55 55 54 52 50 47 44 44 43 43 44 42 38 38 38 43 42 40
59 58 57 56 57 56 53 50 46 43 43 43 43 42 43 40 36 41 42 42 41 37
57 56 56 55 53 51 47 44 43 43 42 42 40 38 36 39 41 42 42 43 41 36
54 53 52 52 51 50 48 45 43 41 40 40 38 37 39 42 42 41 41 42 38 38
50 49 49 47 46 45 44 42 39 38 38 38 38 40 40 41 40 40 40 39 38 38
46 45 44 42 40 39 39 38 38 39 40 40 42 39 39 37 38 38 38 39 40 38
43 41 40 39 38 38 38 38 38 38 37 38 38 38 38 36 38 39 39 40 37 33
41 40 39 39 40 40 40 39 39 38 37 38 39 38 36 37 39 37 34 32 31 30
39 39 40 40 40 41 40 40 40 40 40 38 40 38 37 36 34 33 33 32 31 32
40 40 40 40 40 39 39 39 40 37 36 33 33 33 34 33 33 32 30 31 32 34

GFSNIL_sfc_dewp_039.txt.gz
Dewpoint
55 54 53 56 57 58 59 59 56 52 52 51 52 51 49 48 47 47 47 47 48 48
55 56 58 58 59 59 59 56 54 52 51 50 49 48 47 47 47 47 47 47 47 47
57 57 59 58 56 57 55 55 53 53 52 51 48 47 47 47 47 47 47 47 46 45
58 59 58 59 59 57 54 54 53 54 52 47 47 47 46 45 47 45 45 45 44 43
59 59 58 58 57 55 53 53 54 52 50 47 47 46 45 45 45 44 44 44 44 42
60 60 58 57 57 54 54 53 51 49 47 46 46 45 45 44 44 45 44 43 43 42
57 56 56 55 54 52 51 50 50 48 46 46 45 44 44 44 44 43 43 43 41 40
56 56 54 52 50 47 47 46 45 45 45 44 44 43 44 44 43 42 42 41 40 41
55 54 54 51 49 47 45 44 43 43 43 43 42 40 40 42 41 40 39 40 39 39
48 47 46 47 47 45 43 41 40 40 39 39 38 38 39 38 39 38 36 35 36 38
44 43 41 40 39 38 39 38 38 39 40 39 39 38 37 36 36 36 37 38 38 36
42 39 38 38 37 38 38 38 37 38 38 38 38 38 36 36 36 38 33 31 29 29
40 39 40 40 40 39 39 39 40 39 40 38 38 36 35 33 29 26 25 25 26 28
40 40 40 40 39 39 38 37 35 36 36 33 29 28 28 26 23 24 25 24 23 23

GFSNIL_sfc_dewp_042.txt.gz
Dewpoint
53 54 55 53 53 57 57 58 59 59 58 56 53 52 52 50 50 48 48 48 48 49
54 55 56 54 55 56 58 58 58 57 56 54 53 52 51 50 48 48 48 48 48 47
54 55 56 56 56 57 55 56 56 54 53 52 51 50 50 49 48 47 48 47 47 47
55 56 57 57 57 57 57 56 54 53 51 51 50 49 48 47 47 47 46 46 46 45
58 57 58 58 58 57 57 57 55 53 53 50 49 48 47 46 47 46 45 45 44 43
59 59 59 59 58 58 58 57 54 53 52 50 49 47 46 46 45 45 44 44 43 43
58 59 59 59 57 57 54 53 53 51 50 48 47 46 45 45 44 44 44 43 42 42
57 58 58 55 54 53 52 51 50 49 48 46 45 45 44 44 44 43 43 43 41 40
56 55 54 52 50 48 48 47 46 45 45 44 44 40 41 43 42 42 41 40 40 39
54 53 51 50 48 47 44 43 43 43 44 42 43 39 40 40 41 39 39 37 37 38
49 49 48 46 44 41 41 40 39 38 39 39 39 38 38 36 36 35 37 37 34 31
45 44 42 40 39 38 38 38 38 38 38 37 37 37 36 35 35 33 30 28 28 27
40 39 38 38 37 37 37 37 38 37 37 36 35 36 36 35 32 27 25 24 23 25
40 39 38 38 38 38 37 36 35 33 32 30 30 29 29 27 24 24 23 22 22 23

GFSNIL_sfc_dewp_045.txt.gz
Dewpoint
49 48 48 50 53 54 53 54 55 56 57 57 57 55 54 54 53 51 50 48 48 49
49 50 50 52 54 54 54 56 56 56 57 58 57 56 54 53 51 50 49 49 49 49
51 51 52 54 55 54 54 56 56 55 56 55 55 54 54 52 50 49 49 49 49 48
52 53 54 55 55 55 55 56 56 56 55 53 53 51 50 49 48 48 48 48 48 47
55 55 56 57 57 57 57 57 56 55 54 52 51 50 50 48 48 47 47 47 46 45
56 56 56 56 57 57 57 58 57 57 54 53 52 50 49 48 47 47 47 46 45 44
56 56 56 57 57 57 58 57 57 54 53 52 50 49 48 47 46 46 45 44 44 42
56 57 57 57 58 58 57 57 54 53 51 50 48 47 46 46 45 44 44 43 42 41
55 56 57 56 54 53 52 51 51 50 48 47 47 44 41 43 44 43 42 41 40 40
55 55 53 52 51 50 48 46 46 46 46 45 44 40 41 40 42 42 41 40 38 37
53 51 50 49 47 45 45 44 44 43 43 43 42 39 39 38 39 38 38 37 35 31
50 49 47 45 43 41 41 41 40 41 40 40 39 37 37 37 36 32 29 28 28 27
47 46 43 41 40 38 38 38 38 36 35 36 36 36 36 35 31 27 25 23 23 25
42 42 39 38 37 37 37 36 35 32 32 32 32 32 33 31 29 26 24 21 21 22

GFSNIL_sfc_dewp_048.txt.gz
Dewpoint
49 48 48 48 49 50 52 52 52 54 54 54 54 54 54 53 54 53 52 51 50 50
49 48 48 49 50 52 52 53 54 54 54 54 55 55 54 54 54 53 53 52 51 49
49 50 50 50 51 52 53 53 54 55 55 56 56 56 56 56 56 55 53 51 50 49
50 50 51 51 53 54 54 54 54 55 56 56 56 56 56 55 52 52 52 50 50 48
51 52 52 52 52 53 52 55 55 55 56 56 56 53 52 51 51 51 50 49 48 47
51 52 53 53 53 53 54 55 56 56 56 55 52 51 51 50 50 49 48 47 47 46
51 52 52 53 53 54 55 55 56 57 56 56 52 50 50 50 48 47 47 46 46 45
52 53 53 54 54 55 56 56 57 57 55 52 51 50 49 48 47 46 45 45 44 43
53 54 54 54 55 56 56 57 57 55 51 50 49 44 44 46 46 45 44 42 41 41
54 54 55 56 56 56 55 53 51 50 49 48 48 41 42 43 44 43 42 40 39 38
54 55 55 53 52 49 49 49 47 46 46 45 43 40 39 39 41 39 39 38 36 33
54 51 50 49 47 46 46 45 45 44 43 42 40 38 37 38 35 32 30 30 30 29
50 49 47 44 43 42 41 39 39 37 38 38 37 37 36 34 31 29 26 25 26 27
46 44 42 40 40 39 37 34 33 31 30 31 33 34 34 33 30 28 25 23 21 21

GFSNIL_sfc_dewp_051.txt.gz
Dewpoint
53 52 52 52 52 53 53 53 54 55 56 56 57 57 58 58 58 58 57 56 55 53
53 52 52 53 53 54 54 53 54 55 55 56 57 57 58 58 58 57 57 56 55 53
53 53 53 53 53 53 54 54 54 55 56 56 57 57 57 58 58 57 56 56 54 53
54 54 53 53 52 52 52 52 53 54 55 56 56 57 58 58 58 55 56 55 54 53
54 53 53 53 53 54 53 53 52 53 54 55 56 57 57 57 56 54 54 54 52 52
53 54 52 53 53 54 54 54 54 54 55 55 55 56 57 56 54 53 54 54 52 50
52 52 53 53 53 54 54 54 54 55 55 56 56 56 55 55 55 54 53 52 49 48
51 52 52 53 54 54 54 54 55 56 56 56 56 55 54 53 52 51 49 48 47 47
51 51 52 52 53 54 55 55 56 56 56 57 56 48 46 49 51 50 47 45 43 43
52 52 54 53 53 54 55 56 57 57 56 55 54 44 44 43 48 46 45 42 40 38
53 53 54 54 54 56 56 56 55 53 51 49 47 41 41 41 44 42 41 41 38 36
54 54 55 55 52 49 48 46 45 45 45 44 41 39 38 38 37 35 34 34 33 32
55 53 52 48 46 43 42 40 39 38 39 38 38 37 37 36 33 31 30 29 29 29
51 48 45 42 41 39 36 34 33 32 32 34 35 35 35 35 32 29 27 25 24 26

GFSNIL_sfc_dewp_057.txt.gz
Dewpoint
56 55 55 55 54 54 53 55 57 58 58 59 59 60 59 59 59 59 59 60 58 58
56 55 55 56 56 55 55 54 57 58 59 59 59 59 59 59 59 59 59 60 59 58
57 56 57 56 57 57 56 55 56 57 57 57 57 58 58 57 57 57 57 57 58 57
58 58 58 57 58 57 57 56 54 54 55 55 55 56 56 56 56 56 56 57 57 57
59 59 58 59 59 59 58 58 56 54 54 54 54 55 55 55 54 55 55 55 56 56
58 58 58 59 59 59 59 58 57 55 55 54 55 55 55 55 55 55 55 55 55 56
57 57 58 58 59 59 58 58 57 57 56 56 55 54 54 54 55 55 55 57 55 55
56 57 57 57 58 58 58 57 56 57 57 57 55 54 55 54 54 54 54 55 56 56
55 55 56 56 57 57 57 57 57 56 56 56 54 47 44 50 55 54 53 54 55 56
55 55 56 56 55 56 56 57 56 56 56 56 56 44 44 44 54 56 57 56 56 51
54 54 55 55 55 55 56 56 56 56 56 56 55 43 44 44 55 55 53 53 50 45
53 53 53 54 55 56 56 56 56 56 56 55 54 43 43 44 44 40 39 40 40 39
51 52 52 54 55 56 56 54 46 41 41 39 40 41 42 42 38 34 33 33 34 34
51 52 53 54 55 51 45 39 37 34 35 35 36 37 38 37 34 32 31 30 30 31

GFSNIL_sfc_dewp_060.txt.gz
Dewpoint
56 55 54 53 52 51 50 53 55 56 55 56 57 57 59 59 58 57 58 57 55 57
56 55 55 54 53 52 52 53 56 57 57 56 56 57 58 58 57 57 57 56 57 56
56 56 56 55 55 54 53 53 53 56 57 56 56 57 58 58 57 57 57 57 56 56
55 55 57 55 55 55 55 54 54 54 54 55 57 57 57 56 56 56 56 55 55 56
56 56 56 56 56 56 55 55 54 53 53 54 54 55 55 55 54 55 54 55 54 54
57 57 57 56 56 56 55 56 55 54 52 52 53 53 54 54 54 53 53 53 53 53
57 57 57 57 57 57 57 56 56 55 54 53 52 52 52 52 53 53 53 53 53 53
55 57 57 57 57 57 57 57 57 56 55 55 54 52 52 52 53 53 53 53 53 54
53 55 56 57 57 58 57 57 57 57 56 56 54 48 45 50 54 53 53 52 53 53
54 54 55 56 56 56 57 57 57 56 56 56 56 46 44 43 53 53 53 53 53 53
55 54 54 55 55 55 56 56 56 56 56 56 55 47 44 43 51 53 53 53 53 54
53 54 54 54 55 55 56 56 56 56 55 55 54 41 41 42 48 42 37 38 38 39
48 52 53 54 55 55 55 55 53 42 41 39 41 39 40 44 40 34 33 33 33 34
50 52 53 54 54 55 48 40 36 34 34 34 36 37 39 38 35 33 31 30 31 32

GFSNIL_sfc_dewp_063.txt.gz
Dewpoint
55 54 51 51 53 53 52 53 55 56 54 55 56 57 57 57 57 57 57 56 56 55
55 54 53 51 51 52 50 51 54 56 55 55 55 57 57 57 56 57 57 56 56 55
56 56 55 54 52 51 50 50 50 55 56 55 55 56 57 57 57 57 56 56 56 56
56 56 55 55 53 53 52 50 50 53 55 56 55 54 56 56 56 56 55 55 55 55
56 56 56 55 55 55 53 52 51 51 53 55 55 55 54 54 55 56 55 55 55 55
55 54 55 55 55 54 55 54 53 52 51 51 52 53 55 55 55 55 55 55 55 54
55 54 54 55 55 55 55 55 54 54 53 53 52 52 52 53 55 55 55 55 54 54
56 56 55 55 55 55 55 55 55 55 54 54 53 52 53 53 53 53 53 53 53 53
56 56 56 56 56 56 56 55 55 54 55 55 53 48 44 49 52 52 52 52 53 53
54 55 56 56 56 56 56 57 56 56 56 55 55 47 45 43 51 52 52 52 52 53
52 53 53 55 56 56 57 57 56 56 56 56 56 48 46 44 50 53 53 54 54 53
49 48 49 53 54 55 55 56 56 57 57 57 56 45 44 44 51 52 40 38 39 42
45 44 45 47 50 55 55 55 55 47 41 39 44 38 41 44 46 36 33 33 34 35
39 39 41 43 44 52 51 41 38 36 36 36 37 38 40 41 41 36 32 32 31 33

GFSNIL_sfc_dewp_066.txt.gz
Dewpoint
54 53 52 53 53 53 53 52 53 53 53 54 53 53 54 56 56 54 55 55 55 54
54 54 52 52 53 53 53 54 55 54 53 54 55 55 55 53 55 56 55 55 55 55
55 54 53 52 51 53 53 52 53 56 55 55 54 55 56 56 56 55 55 56 56 56
56 55 55 53 51 51 52 51 51 54 55 55 54 54 54 55 56 56 55 55 56 55
56 56 56 55 54 53 51 51 50 50 54 55 55 54 53 52 52 55 55 55 55 54
55 55 55 55 55 55 53 52 51 50 49 51 54 55 54 53 53 53 55 55 55 54
54 55 55 55 55 55 55 54 53 52 51 50 49 51 53 54 54 53 53 54 55 55
55 55 55 55 55 55 55 55 54 54 54 53 52 50 50 51 51 52 53 53 54 55
56 57 56 55 55 55 55 55 54 54 54 54 53 48 45 48 51 51 51 52 54 55
46 50 55 56 56 55 54 55 55 55 55 53 54 47 45 43 51 52 53 52 52 52
43 46 46 47 50 56 56 55 55 55 55 55 54 47 44 43 50 52 52 53 53 53
40 40 41 43 44 46 47 55 56 56 56 55 55 48 46 45 53 53 52 52 48 49
34 35 36 39 40 42 44 45 52 56 56 52 55 46 43 46 54 53 51 37 36 37
30 30 33 33 37 40 41 41 41 40 36 36 36 37 40 43 50 48 35 33 32 33

GFSNIL_sfc_dewp_072.txt.gz
Dewpoint
54 54 55 56 56 57 57 57 56 57 57 57 57 57 57 56 55 55 54 53 53 51
54 54 54 56 56 56 57 56 56 56 57 56 57 57 57 57 56 56 56 55 54 53
54 53 53 54 54 55 56 55 54 54 55 56 56 56 56 56 56 56 56 55 54 54
53 53 52 52 52 54 54 54 53 53 54 54 55 56 56 55 54 55 55 55 54 53
54 54 52 52 52 52 53 53 53 54 53 53 54 54 55 54 53 53 53 54 53 52
55 54 53 53 53 52 52 52 52 52 54 54 54 53 53 54 53 52 52 51 51 52
55 55 55 55 55 54 53 52 52 52 52 52 53 54 53 53 53 53 53 54 53 53
51 56 56 56 56 56 55 54 53 52 52 52 52 51 52 53 53 53 52 52 51 52
43 45 45 47 48 54 56 56 55 54 53 53 51 46 44 47 51 51 52 52 52 52
37 37 38 41 42 43 45 47 48 52 55 55 54 47 45 42 50 50 50 50 50 50
32 33 35 36 36 38 41 43 44 45 45 44 41 35 35 37 48 52 52 52 52 52
30 31 32 32 34 35 37 40 41 37 36 33 34 33 35 36 41 50 52 53 53 53
29 29 29 30 32 34 36 36 35 31 30 30 30 32 34 35 38 41 46 49 34 33
26 27 28 29 30 31 32 31 30 29 29 28 29 29 31 32 35 36 32 30 30 31

GFSNIL_sfc_dewp_075.txt.gz
Dewpoint
57 57 57 57 57 57 58 57 58 59 58 57 57 57 56 55 54 54 56 56 56 53
56 56 56 57 57 58 58 57 57 58 58 58 57 57 57 56 55 54 54 55 56 54
56 56 56 56 56 57 58 58 57 58 57 57 57 57 57 57 56 55 56 56 55 55
56 56 56 56 56 56 57 56 56 56 57 56 57 57 57 57 57 56 55 55 55 55
56 56 56 56 56 57 56 56 55 55 56 56 56 57 57 56 56 56 55 56 55 55
54 55 55 55 55 55 56 56 55 54 54 55 55 56 56 56 56 56 56 56 56 55
55 55 55 56 56 55 55 55 55 55 55 55 54 54 54 55 56 56 55 55 55 55
47 48 50 52 54 56 56 54 54 54 54 55 54 54 55 54 54 54 55 56 54 55
39 41 43 45 46 47 47 48 53 54 54 53 48 36 38 45 54 54 54 54 55 55
35 36 37 38 39 41 43 45 45 44 44 42 35 35 36 36 43 50 52 53 53 53
33 33 34 36 37 39 41 42 39 37 35 36 33 34 34 34 41 45 48 51 52 52
31 31 33 34 35 37 38 37 33 32 31 32 31 32 32 34 39 42 44 36 34 33
29 30 30 31 33 33 33 31 30 29 30 30 30 30 31 33 38 38 34 30 29 31
26 28 29 29 30 30 29 29 29 28 28 28 28 29 29 29 29 29 27 26 26 27

GFSNIL_sfc_dewp_078.txt.gz
Dewpoint
58 58 57 58 58 59 59 59 60 59 57 57 55 55 56 56 56 57 57 57 56 55
59 59 58 59 58 58 58 58 59 59 59 58 57 55 55 55 55 55 56 56 56 55
57 58 57 57 57 57 58 58 58 59 58 58 58 58 56 55 55 54 54 55 55 55
55 56 57 56 56 56 58 58 57 58 58 58 58 57 57 56 55 54 54 55 54 54
56 56 57 56 56 57 57 57 58 58 58 57 57 57 57 57 57 55 53 54 55 54
55 55 55 55 56 57 56 56 56 56 56 57 57 57 58 57 57 57 57 56 54 54
54 55 55 55 55 55 55 56 55 55 55 55 56 56 57 57 57 57 57 57 57 57
45 47 48 50 50 54 55 55 55 55 55 56 49 39 42 54 56 56 56 57 56 56
41 41 42 43 45 46 47 48 47 45 43 41 36 35 36 39 50 53 54 54 55 55
38 37 39 40 41 43 44 42 40 40 39 35 33 34 34 34 39 45 49 51 49 51
35 36 38 39 40 41 39 37 35 35 35 33 31 32 33 34 40 44 38 34 34 36
33 33 35 36 37 37 36 34 33 32 32 32 30 31 32 37 43 37 33 31 30 31
30 31 33 33 34 33 32 31 31 30 32 31 31 29 30 34 34 31 29 28 28 28
29 30 31 31 31 31 31 31 31 30 30 29 28 28 28 29 30 28 26 26 26 28

GFSNIL_sfc_dewp_081.txt.gz
Dewpoint
57 57 57 58 57 59 59 59 59 58 58 58 58 59 59 59 58 59 59 58 57 56
57 57 57 58 59 60 60 60 60 59 57 57 57 57 58 58 58 59 59 58 58 57
57 57 58 59 58 57 58 58 59 59 59 57 56 56 56 56 56 55 56 57 56 57
57 57 58 58 57 57 58 58 58 59 59 58 57 56 55 55 54 54 54 55 55 54
56 56 57 56 56 57 57 57 58 58 57 58 58 57 57 56 55 53 53 53 53 53
56 57 56 56 56 57 56 57 57 58 57 57 58 58 57 57 56 55 54 54 54 53
54 55 55 55 57 58 57 56 56 56 57 57 56 54 55 57 57 57 57 57 57 55
46 47 48 49 52 54 52 51 50 54 47 42 39 36 39 47 55 57 57 58 57 57
42 43 44 45 46 44 43 43 43 40 38 37 34 34 35 37 48 52 52 52 49 51
41 41 42 43 41 40 39 38 38 37 35 33 33 34 35 35 42 42 38 37 37 40
38 39 41 40 38 37 36 35 35 35 34 32 31 33 34 35 39 35 32 31 33 33
35 36 36 36 36 35 35 34 33 32 33 31 30 32 33 38 35 32 30 29 29 30
32 34 34 34 35 34 33 32 32 30 30 31 29 30 32 34 32 30 28 28 28 28
31 32 33 33 34 32 32 31 31 30 29 28 28 28 29 32 31 30 29 28 27 28

GFSNIL_sfc_dewp_084.txt.gz
Dewpoint
59 58 58 59 59 59 59 58 59 59 59 59 59 59 59 58 59 59 58 57 56 56
58 58 59 59 59 60 59 59 58 58 58 58 58 59 59 58 58 58 58 57 57 56
58 58 59 59 60 60 60 59 59 58 57 57 57 57 58 58 58 58 58 57 56 56
57 58 59 59 59 58 59 59 59 59 57 56 56 57 57 56 56 56 55 55 55 55
58 58 58 58 58 59 58 59 58 59 58 57 56 56 56 55 55 55 54 55 55 54
57 57 57 57 57 57 57 58 58 58 58 58 57 56 56 55 55 54 53 53 53 53
52 54 54 56 57 57 57 57 57 55 49 47 44 45 49 56 56 55 55 54 54 54
48 48 50 49 48 48 48 46 46 42 41 39 37 36 37 43 53 57 56 56 56 50
44 45 44 43 42 41 41 40 38 36 36 36 34 35 36 38 49 44 43 42 42 42
43 41 40 39 38 38 37 37 35 35 34 33 34 35 38 38 37 35 35 35 35 35
40 40 39 38 37 36 35 35 35 33 32 32 33 37 36 35 34 32 31 31 32 32
38 38 37 36 36 35 35 33 33 32 31 31 31 34 36 34 32 30 29 29 30 29
35 35 35 35 35 34 33 32 30 29 30 29 29 32 33 32 31 29 28 28 28 29
34 34 33 33 33 32 31 31 30 28 27 27 28 29 31 32 30 28 27 26 26 27

GFSNIL_sfc_dewp_087.txt.gz
Dewpoint
58 57 58 59 59 58 58 57 58 58 60 59 60 59 59 60 59 59 58 57 57 57
57 57 58 58 58 58 58 58 58 58 59 59 59 59 59 59 58 58 58 57 57 57
57 58 59 60 59 58 58 58 58 58 58 58 58 59 58 57 58 58 58 57 57 56
57 58 59 59 59 59 59 58 58 58 57 57 57 57 58 58 57 57 57 57 56 56
58 59 59 59 58 59 59 59 58 58 57 56 57 57 56 57 57 56 56 55 55 55
58 58 58 58 58 58 58 58 58 58 58 57 56 56 56 56 56 56 56 55 55 55
54 54 53 53 55 56 56 52 48 47 46 46 45 48 54 56 55 55 55 55 55 54
50 49 47 46 46 45 44 43 43 41 40 40 39 38 43 51 54 55 53 52 44 42
44 43 43 42 41 41 39 38 37 36 37 37 37 37 38 43 42 42 42 42 41 38
40 39 38 38 38 37 36 35 35 35 35 37 37 36 36 36 35 34 35 35 36 34
38 37 37 36 35 35 34 33 33 32 33 35 36 35 34 33 32 31 31 31 31 32
37 36 36 35 34 34 33 32 31 31 31 32 34 35 34 31 30 29 29 30 30 30
35 36 35 34 34 33 31 30 30 30 31 32 32 34 33 30 28 27 27 28 29 30
34 34 34 34 33 32 31 30 28 28 29 29 30 31 31 30 28 27 26 26 27 29

GFSNIL_sfc_dewp_090.txt.gz
Dewpoint
58 57 57 58 59 58 58 58 59 60 60 60 60 60 60 60 60 59 59 57 57 57
58 57 57 58 58 58 58 57 57 58 58 59 59 59 59 60 59 59 59 58 58 57
57 57 58 58 57 58 58 58 57 57 58 58 59 59 59 59 59 58 58 58 57 57
57 58 59 58 58 58 58 58 57 57 58 57 58 58 57 57 58 58 57 58 57 56
59 59 59 59 59 59 58 58 58 57 57 57 57 57 57 57 57 57 56 56 56 55
58 58 58 58 59 59 59 58 58 57 57 57 57 57 57 57 57 57 57 56 56 55
54 54 54 54 53 54 52 50 49 48 48 49 49 53 56 57 56 56 56 56 56 56
48 48 48 47 45 44 43 43 43 43 42 42 41 41 48 54 55 54 47 45 43 41
45 43 42 41 41 39 39 38 38 38 39 39 39 38 39 45 45 45 43 40 39 39
39 39 38 37 37 36 36 36 36 37 37 36 36 36 36 36 37 36 36 37 36 37
36 36 35 35 34 33 34 33 34 35 35 34 34 34 34 33 32 32 31 32 34 35
35 34 33 32 32 32 32 31 32 33 33 33 33 33 32 31 30 30 31 31 32 34
34 33 32 32 31 31 30 30 30 30 31 33 32 32 32 30 29 28 29 30 30 31
32 32 33 32 32 31 30 29 28 28 29 30 31 32 32 31 29 28 28 28 29 31

GFSNIL_sfc_dewp_093.txt.gz
Dewpoint
58 58 58 58 58 58 57 58 59 59 60 61 61 60 60 60 60 60 59 58 57 56
58 58 57 57 58 58 58 58 58 60 60 60 60 60 60 60 60 60 59 58 57 56
58 58 57 57 57 57 56 57 58 57 58 58 58 59 59 59 59 59 59 58 57 57
57 57 57 57 56 56 57 57 57 57 57 56 57 57 58 58 58 58 58 58 57 56
58 58 58 57 57 57 56 56 56 57 57 57 57 57 57 57 57 57 57 57 57 56
58 58 58 59 58 58 57 57 57 57 57 57 57 57 57 57 57 57 57 57 57 56
57 57 56 56 56 55 54 52 50 50 49 50 51 54 56 57 57 57 57 57 57 56
49 51 49 48 46 45 45 44 44 44 43 42 42 41 45 55 56 51 48 46 44 44
41 42 41 41 41 40 39 40 40 39 38 38 37 37 39 47 47 45 43 40 39 38
37 36 36 36 36 36 36 37 37 36 35 34 35 36 36 37 38 38 38 39 38 36
34 33 33 33 33 33 34 34 35 34 34 33 33 34 34 34 34 34 33 34 37 35
34 33 32 31 31 31 31 31 32 33 32 32 32 33 33 32 32 31 32 33 34 33
32 32 32 31 30 30 30 30 30 30 31 32 32 33 32 31 30 30 30 30 31 32
30 32 32 31 31 30 30 29 29 28 29 30 30 31 32 31 30 30 29 30 30 31

GFSNIL_sfc_dewp_096.txt.gz
Dewpoint
58 58 58 59 59 59 60 60 60 60 60 59 59 60 60 60 59 59 59 59 58 57
58 58 58 58 59 59 59 58 58 59 59 60 60 60 60 60 59 59 59 59 58 57
59 58 58 58 58 58 58 58 57 58 59 60 60 60 60 60 60 59 59 59 57 57
58 58 58 58 58 57 57 57 57 57 58 58 58 58 58 58 58 58 59 59 58 56
57 58 57 57 57 56 56 56 56 57 56 56 56 57 57 57 57 57 57 57 58 56
58 58 57 57 57 56 56 55 55 55 57 56 57 57 57 57 57 57 57 58 57 56
47 57 58 58 58 57 57 55 53 51 50 50 50 52 55 57 57 57 57 57 57 57
41 42 47 51 49 47 46 46 46 45 43 42 41 40 43 51 56 54 49 46 44 46
37 37 37 40 41 41 41 40 39 38 38 37 37 37 39 47 47 45 44 41 40 39
36 35 34 34 36 37 37 36 35 35 35 34 35 36 37 37 39 38 39 39 38 37
34 34 34 32 32 33 34 34 33 33 33 33 33 34 35 34 35 35 35 35 35 34
32 32 32 32 32 31 31 31 31 32 32 32 33 33 33 33 32 31 32 33 33 33
31 31 30 30 30 31 31 30 30 30 31 32 32 33 33 32 31 30 30 31 32 33
29 29 30 29 29 29 29 29 28 28 29 30 31 32 32 32 30 30 29 29 29 31

GFSNIL_sfc_dewp_099.txt.gz
Dewpoint
62 62 63 63 60 60 59 60 62 62 62 62 62 61 61 61 61 61 60 60 59 59
61 60 60 63 63 62 62 61 61 62 61 61 60 60 61 60 61 61 60 60 60 59
60 60 60 60 60 60 60 59 61 60 60 60 60 61 61 60 60 60 60 60 59 59
60 59 59 59 60 60 59 59 59 59 59 59 60 60 60 60 60 59 59 59 59 58
59 59 59 59 59 59 58 58 58 58 58 58 59 59 59 58 59 59 58 58 58 58
46 56 58 59 57 58 57 57 57 58 57 57 57 57 57 57 58 58 58 58 58 57
42 43 49 57 58 58 58 58 58 57 55 55 54 55 57 57 57 57 58 57 57 58
38 38 39 44 44 55 53 50 49 47 45 44 43 41 46 52 56 57 52 48 45 43
37 37 36 36 38 40 42 41 40 39 39 39 38 37 39 48 49 46 44 42 41 39
35 35 36 35 34 34 35 36 35 35 35 35 36 36 37 38 40 39 39 38 38 38
32 33 35 34 33 32 32 33 33 33 34 34 34 35 35 35 36 35 34 34 35 35
30 30 31 32 32 32 32 31 31 32 32 33 33 34 34 34 33 32 32 33 33 33
30 29 28 29 30 32 31 30 30 30 31 32 32 34 33 32 32 31 30 31 32 33
29 29 29 29 30 29 29 29 28 28 28 29 30 32 32 32 30 30 29 28 29 30

GFSNIL_sfc_dewp_102.txt.gz
Dewpoint
59 59 62 62 62 62 62 62 64 62 59 59 61 62 63 63 64 63 64 61 61 60
63 62 63 63 63 62 64 62 61 60 61 61 62 63 62 63 63 62 61 61 62 60
62 62 62 63 63 61 62 61 61 61 62 62 62 62 63 62 61 61 61 61 60 60
61 61 62 62 62 61 62 62 61 61 61 60 61 62 61 60 60 60 60 61 60 60
48 55 60 60 60 61 61 61 61 61 60 60 60 60 61 60 60 60 59 59 59 59
42 45 47 58 60 60 60 60 59 59 59 59 60 59 60 60 60 60 60 59 59 59
41 41 42 46 53 59 59 58 58 59 58 58 58 59 58 58 58 58 59 60 59 58
38 39 38 39 41 45 52 57 56 53 51 51 50 44 50 56 58 58 58 52 49 45
35 37 37 37 36 37 37 40 44 44 44 41 39 37 39 46 53 50 49 46 44 41
32 34 35 36 35 34 34 34 36 38 37 37 37 37 38 40 44 42 40 40 41 39
31 31 32 34 34 33 33 32 32 33 35 35 34 35 36 36 37 37 36 36 37 37
30 30 30 30 31 32 32 31 30 32 33 34 34 34 34 34 33 32 32 33 34 34
32 31 30 31 30 31 30 29 29 28 30 32 32 34 33 33 32 31 30 31 31 32
31 32 32 32 32 32 31 29 28 27 27 28 30 31 32 31 30 29 28 29 29 30

GFSNIL_sfc_dewp_105.txt.gz
Dewpoint
46 49 52 56 58 60 62 63 63 64 63 63 63 61 63 64 64 64 63 63 63 62
46 50 57 60 61 62 64 62 63 64 63 63 64 63 63 62 63 63 64 64 63 62
45 48 59 61 61 62 63 63 63 63 63 61 60 62 62 61 62 63 64 64 63 62
43 47 52 60 61 61 62 62 61 62 61 61 61 59 60 61 61 61 62 61 61 60
41 43 46 50 57 61 62 62 61 60 60 60 60 61 58 57 59 60 60 60 61 59
38 41 41 43 47 60 61 61 61 60 60 60 61 61 61 58 57 60 60 59 59 59
36 38 40 40 43 43 50 60 60 60 60 59 60 60 61 60 60 60 60 61 60 60
34 36 38 39 39 39 39 41 50 56 54 56 54 54 59 59 59 59 59 56 53 49
33 33 34 35 37 36 36 35 37 40 43 42 40 39 41 54 55 53 52 48 46 44
32 32 32 33 34 34 35 34 33 34 36 36 37 38 41 41 44 41 41 41 41 41
32 32 32 31 31 32 32 32 32 31 33 34 34 36 36 36 37 36 35 35 36 37
33 32 32 31 30 30 28 29 29 30 30 32 32 34 35 34 33 32 32 32 33 34
33 33 32 32 32 32 31 29 28 27 28 30 30 33 33 32 31 30 30 30 31 32
32 33 33 34 33 33 32 32 30 28 27 27 28 29 31 31 29 29 28 28 28 30

GFSNIL_sfc_dewp_108.txt.gz
Dewpoint
40 43 44 46 48 50 53 57 61 63 64 64 64 63 63 62 61 60 60 60 61 61
41 43 44 46 49 52 54 57 61 64 63 63 63 63 60 59 59 58 61 58 60 61
39 42 44 46 49 55 57 60 61 63 63 63 63 63 60 60 61 62 62 62 61 61
38 39 42 43 45 47 51 59 61 63 63 62 62 62 62 61 61 61 60 61 60 60
36 37 39 40 42 46 46 52 60 61 62 62 61 60 61 60 59 59 57 58 59 59
34 35 37 38 39 42 43 46 54 59 61 61 60 59 59 59 59 57 57 58 58 59
33 34 35 36 37 39 40 41 42 52 59 60 60 59 58 57 56 55 56 59 59 59
32 33 33 34 34 36 37 38 38 40 42 45 47 47 54 59 57 54 55 56 52 48
32 32 32 32 32 32 33 35 35 35 36 38 39 37 42 54 58 56 54 48 47 43
33 32 32 32 30 29 30 31 32 33 33 33 34 36 39 42 44 41 40 42 43 41
32 32 33 32 31 30 28 28 28 29 31 32 32 34 35 36 36 35 34 34 35 36
32 32 32 32 32 32 29 28 27 27 27 28 30 33 33 33 32 31 31 31 32 32
32 31 31 32 32 32 32 31 30 28 28 29 28 31 32 31 30 28 28 29 29 31
30 30 30 30 32 32 32 31 30 29 30 29 29 29 30 30 28 27 27 27 27 29

GFSNIL_sfc_dewp_111.txt.gz
Dewpoint
38 39 39 42 43 44 46 48 50 52 56 58 61 62 62 62 60 59 61 60 60 60
37 39 39 40 42 45 47 49 53 52 54 53 56 58 61 60 60 58 56 56 61 60
36 37 38 39 41 42 45 47 50 55 55 57 54 57 60 60 60 59 59 57 59 59
35 36 37 38 39 40 42 45 48 50 59 59 59 59 59 60 59 59 58 59 58 56
34 35 35 36 37 39 39 42 44 49 56 59 58 58 60 59 59 58 59 59 58 57
33 33 33 34 34 36 37 38 40 43 45 52 59 59 61 60 60 60 60 59 59 58
33 33 32 32 32 33 34 35 36 38 40 42 44 46 50 60 59 57 57 57 56 55
33 33 32 31 30 30 31 31 33 35 36 36 38 36 39 46 57 55 55 53 51 50
32 32 32 31 30 29 29 29 30 31 32 33 34 36 36 40 56 55 52 47 45 44
32 33 32 32 30 29 29 28 28 28 30 30 32 35 34 35 40 43 43 42 42 40
30 30 32 32 32 32 30 29 28 28 28 29 31 34 34 33 32 32 32 33 34 35
30 29 29 29 31 31 29 29 28 29 29 28 29 32 32 32 30 29 29 30 32 32
28 27 27 27 28 30 30 29 28 27 27 29 29 32 30 29 29 27 27 29 29 31
27 25 25 25 26 26 26 25 26 25 26 26 28 30 32 30 27 26 26 26 27 29

GFSNIL_sfc_dewp_114.txt.gz
Dewpoint
36 37 37 37 38 39 42 43 45 47 49 50 52 54 57 61 60 59 59 59 59 57
36 36 37 37 38 39 40 41 43 44 47 49 53 53 55 60 59 60 60 59 59 59
34 35 36 37 37 37 39 40 41 42 45 48 52 54 54 56 59 59 59 59 59 59
33 34 35 35 35 36 37 38 39 40 43 47 49 56 55 54 57 59 59 58 57 59
32 32 32 33 33 34 34 36 37 38 40 43 44 48 58 56 57 58 58 58 57 56
32 31 31 31 31 31 32 32 33 36 37 38 39 40 46 57 57 58 57 58 57 55
31 32 31 31 30 30 30 30 30 32 34 35 36 37 38 43 52 57 58 58 58 58
32 32 32 32 32 30 30 29 30 30 31 32 34 35 36 42 48 51 56 57 55 56
30 30 32 32 31 30 29 29 29 29 30 30 31 35 35 37 37 36 42 49 46 44
29 29 30 31 30 30 29 27 28 28 30 30 30 33 34 34 33 32 32 33 37 41
27 28 28 28 29 28 29 28 27 27 28 30 31 32 31 32 33 31 30 31 32 33
25 24 25 25 26 27 26 26 26 27 27 28 30 33 32 29 29 29 30 30 31 31
26 24 22 21 23 24 24 23 23 24 25 27 28 32 33 30 28 27 28 28 29 31
25 24 23 22 22 22 22 22 21 22 23 24 26 28 32 32 28 28 27 27 27 29

GFSNIL_sfc_dewp_117.txt.gz
Dewpoint
34 35 36 36 36 37 38 39 41 42 43 44 46 48 50 53 53 56 60 58 56 56
34 35 35 35 36 36 36 37 39 40 41 42 44 47 50 53 53 54 59 59 58 57
34 34 34 34 34 34 34 36 37 37 39 41 42 45 47 50 54 54 58 59 58 58
34 33 32 32 32 32 33 34 34 35 37 38 38 41 42 44 54 54 55 58 58 57
33 32 32 31 31 32 31 32 32 33 34 35 36 38 38 40 43 54 55 57 57 56
32 31 31 30 30 31 31 31 31 32 32 33 35 35 36 37 40 45 56 56 57 56
31 31 31 31 30 29 29 29 29 30 31 32 33 33 34 35 41 46 51 56 58 58
30 29 30 29 29 28 28 28 28 29 30 31 31 31 33 34 36 38 39 40 45 51
28 27 28 29 27 28 27 26 27 27 28 29 31 33 32 33 33 33 34 35 35 38
25 25 25 25 26 25 26 26 25 25 26 28 31 33 33 31 31 31 31 32 33 33
23 22 22 22 22 23 23 23 23 24 25 26 29 33 33 31 30 29 29 30 31 32
24 22 21 19 20 21 21 21 22 23 24 25 27 32 32 30 29 28 28 29 30 30
25 22 20 19 19 20 20 20 22 23 24 24 24 28 30 29 28 27 27 28 28 31
24 23 22 22 21 21 20 20 20 21 23 23 23 24 27 27 26 26 25 25 26 28

GFSNIL_sfc_dewp_120.txt.gz
Dewpoint
34 34 34 34 34 35 35 35 37 38 39 41 42 43 45 47 49 52 53 53 54 59
33 34 33 33 33 33 33 34 35 36 37 39 40 41 43 45 47 49 53 54 54 58
33 33 33 33 32 32 32 33 34 34 35 36 37 38 40 41 43 45 48 54 55 56
32 33 32 32 32 32 32 32 32 33 34 34 35 36 37 38 39 40 43 53 55 56
32 32 31 30 30 30 30 31 31 32 32 33 33 34 34 35 37 39 41 45 53 55
30 30 30 30 28 28 29 29 30 30 31 32 33 32 33 35 36 37 40 43 47 55
29 29 29 29 29 28 28 27 27 29 30 32 32 32 32 33 33 34 35 38 39 41
27 27 27 27 26 26 26 26 26 27 28 31 31 32 31 30 31 31 32 32 34 36
24 23 24 24 24 23 23 24 25 26 26 28 30 33 32 30 29 29 29 29 30 32
24 23 22 22 21 22 22 23 24 25 25 26 28 31 30 30 29 28 28 28 29 29
23 22 21 21 20 20 20 21 23 23 23 24 27 29 28 28 28 27 28 28 29 28
23 21 20 19 18 19 19 19 20 24 23 22 23 26 27 25 25 25 25 26 28 28
23 21 19 19 19 19 14 19 20 20 22 23 22 24 25 25 23 22 23 24 25 27
24 22 21 19 19 19 17 18 18 17 18 20 22 21 23 23 22 21 21 21 22 25

GFSNIL_sfc_dewp_123.txt.gz
Dewpoint
34 34 33 33 33 33 33 34 35 36 37 37 39 40 41 43 46 48 50 51 53 53
33 33 33 33 33 33 33 33 34 34 35 36 37 38 39 40 42 44 45 48 49 53
32 32 32 32 31 31 32 32 32 33 34 35 35 36 36 38 39 40 43 44 46 50
31 32 31 30 30 30 31 31 31 32 34 34 34 35 35 36 38 39 41 43 45 47
31 30 30 30 29 29 29 30 30 31 32 32 33 34 34 35 35 36 37 39 40 43
29 29 28 28 28 28 28 28 28 29 31 32 32 32 32 32 32 33 34 34 36 37
27 27 27 27 27 27 27 27 27 28 29 32 31 31 31 31 31 31 31 32 33 33
25 24 25 25 25 25 26 26 25 26 27 30 30 31 31 30 30 29 29 31 30 31
23 22 23 23 24 23 23 24 24 24 24 27 26 29 29 29 29 28 28 28 29 29
23 23 23 23 23 23 24 24 24 24 24 25 26 26 27 27 28 28 28 28 28 28
22 23 23 23 23 23 24 24 24 24 24 25 26 24 24 26 29 29 28 27 29 29
22 22 22 22 23 23 23 23 23 23 23 24 25 23 23 24 26 27 27 27 27 27
21 22 21 22 23 24 22 21 21 21 21 21 23 21 22 23 23 22 24 24 25 24
22 21 21 22 23 23 21 19 19 19 20 20 21 22 20 20 22 21 20 21 22 24

GFSNIL_sfc_dewp_126.txt.gz
Dewpoint
34 34 34 34 34 35 35 34 35 36 37 38 39 39 40 41 43 45 46 46 47 50
34 34 33 33 33 33 34 33 34 35 35 36 37 37 38 39 40 41 43 45 45 46
32 32 33 32 32 32 32 32 33 33 34 34 35 35 36 37 39 39 41 42 43 45
32 32 32 32 31 31 32 32 32 32 33 32 33 34 34 34 35 35 36 37 39 41
31 31 31 31 30 31 31 31 30 31 31 32 32 32 32 32 32 32 33 33 35 34
30 30 29 29 30 30 30 30 29 30 30 30 31 31 32 32 32 32 32 32 32 32
28 28 27 27 27 28 28 27 27 28 29 29 29 29 30 31 31 31 31 32 32 32
26 25 26 26 26 26 27 26 25 26 27 27 26 26 29 30 30 30 29 31 30 31
25 24 25 25 26 26 25 25 25 25 26 25 20 25 27 28 29 28 27 27 29 29
25 25 25 24 24 25 26 25 25 25 25 25 24 24 25 26 28 27 27 28 27 26
23 25 25 25 25 26 28 26 26 25 25 25 25 22 23 24 29 30 28 28 28 28
24 24 24 24 25 26 26 26 25 24 23 23 24 21 20 24 29 30 27 28 27 25
23 23 23 25 25 25 26 25 25 24 23 21 22 20 19 23 23 24 24 24 25 20
22 23 24 25 26 25 24 24 23 23 23 22 21 21 19 17 21 22 21 20 21 22

GFSNIL_sfc_dewp_132.txt.gz
Dewpoint
34 34 34 34 34 33 34 34 34 36 36 36 37 37 38 39 38 37 39 39 38 39
34 33 34 34 33 34 34 32 34 35 35 36 36 36 36 36 35 35 35 36 36 36
33 33 34 33 33 33 33 33 33 33 34 34 34 35 35 34 34 34 34 34 34 34
34 33 32 32 32 33 33 32 33 33 32 32 32 33 35 34 34 33 33 34 33 32
32 32 32 32 31 33 32 32 31 31 29 29 29 31 33 33 33 33 33 34 32 31
31 30 30 30 30 29 28 28 30 28 27 25 27 28 30 31 31 31 31 31 30 29
30 29 29 29 29 28 27 26 26 26 24 23 23 26 28 29 28 28 27 29 29 27
29 28 28 28 28 28 27 25 26 25 23 21 20 23 27 27 25 24 23 24 24 24
27 26 27 27 27 26 25 24 24 25 22 20 17 25 27 27 25 24 22 20 21 20
26 26 26 26 26 26 25 24 24 23 24 21 20 23 26 27 26 25 24 20 19 18
25 26 26 26 27 27 27 25 25 23 22 22 20 21 23 25 26 26 23 22 18 18
25 25 25 24 25 26 27 26 24 24 23 20 20 20 20 21 23 22 21 21 19 18
25 25 22 25 24 27 27 26 26 24 22 21 19 20 19 19 19 19 19 18 18 19
24 26 26 26 27 26 26 25 26 25 22 20 18 18 19 18 17 19 18 17 17 18